Home   Weather   Ajax   Past weeks

Flag for Canada Past Weather in Ajax, Ontario, Canada — Yesterday and Last 2 Weeks

Now
43 °F

Passing clouds.


Feels Like: 41 °F
Forecast: 38 / 60 °F
Wind: 3 mph from Southwest

Location: Toronto Buttonville

Current Time: Apr 23, 2017 at 8:21:57 am

Latest Report: Apr 23, 2017 at 8:00 am


Visibility: 15 mi

Pressure: 30.12 "Hg

Humidity: 61%

Dew Point: 30 °F

Location of AjaxLocation

Past Weather in Ajax — Graph

°F

Ajax Temperature Yesterday

Maximum temperature yesterday: 54 °F (at 3:00 pm)
Minimum temperature yesterday: 39 °F (at 5:32 am)
Average temperature yesterday: 45 °F

High & Low Weather Summary for the Past Weeks

 TemperatureHumidityPressure
High73 °F (Apr 10, 1:00 pm)100% (Apr 15, 1:29 pm)30.52 "Hg (Apr 15, 1:29 pm)
Low30 °F (Apr 18, 5:00 am)19% (Apr 14, 7:00 pm)29.69 "Hg (Apr 16, 12:00 pm)
Average49 °F67%30.08 "Hg
* Reported Apr 8 7:00 am — Apr 23 7:00 am, Ajax, Weather by CustomWeather, © 2017

Note: Actual official high and low records may vary slightly from our data, if they occured in-between our weather recording intervals... More about our weather records

Advertising

Ajax Weather History for the Previous 24 Hours

Scroll right to see more
 ConditionsComfort  
Time TempWeatherWind HumidityBarometerVisibility
7:00 am
Sun, Apr 23
36 °FPassing clouds.5 mph75%30.12 "Hg15 mi
6:00 am36 °FPassing clouds.2 mph70%30.10 "Hg15 mi
5:00 am37 °FClear.No wind65%30.09 "Hg15 mi
4:00 am37 °FClear.2 mph70%30.09 "Hg15 mi
3:00 am39 °FClear.2 mph61%30.10 "Hg15 mi
2:00 am41 °FClear.No wind57%30.11 "Hg15 mi
1:00 am43 °FClear.No wind53%30.12 "Hg15 mi
12:00 am43 °FClear.No wind57%30.12 "Hg15 mi
11:00 pm
Sat, Apr 22
45 °FClear.6 mph53%30.11 "Hg15 mi
10:00 pm45 °FClear.10 mph57%30.11 "Hg15 mi
9:00 pm46 °FClear.8 mph57%30.11 "Hg15 mi
8:00 pm50 °FPassing clouds.10 mph54%30.09 "Hg15 mi
7:00 pm52 °FScattered clouds.12 mph54%30.08 "Hg15 mi
6:00 pm54 °FScattered clouds.12 mph51%30.08 "Hg15 mi
5:00 pm54 °FScattered clouds.8 mph54%30.07 "Hg15 mi
4:32 pm54 °FScattered clouds.14 mph54%30.07 "Hg15 mi
4:00 pm54 °FScattered clouds.10 mph54%30.07 "Hg15 mi
3:00 pm54 °FPartly sunny.13 mph54%30.08 "Hg15 mi
2:00 pm52 °FPartly sunny.12 mph54%30.08 "Hg15 mi
1:00 pm50 °FPartly sunny.17 mph58%30.08 "Hg15 mi
12:00 pm48 °FPartly sunny.13 mph58%30.09 "Hg15 mi
11:23 am46 °FPartly sunny.14 mph62%30.10 "Hg15 mi
11:00 am46 °FBroken clouds.14 mph62%30.10 "Hg15 mi
10:00 am43 °FPartly sunny.20 mph66%30.09 "Hg15 mi
9:00 am41 °FPartly sunny.20 mph70%30.07 "Hg15 mi
8:00 am39 °FPartly sunny.17 mph75%30.05 "Hg15 mi
Weather by CustomWeather, © 2017

See weather overviewHow to use our weather pages